7 * 24
多渠道服务支持
GOES 8是美国于1994年4月13日发射的地球静止环境业务卫星,隶属于美国国家海洋和大气管理局(NOAA)的GOES气象卫星系列。作为静止轨道气象卫星,它运行于地球同步轨道,可对美洲及周边海域开展连续气象观测,提供可见光与红外气象数据,支撑天气预报、风暴追踪和灾害监测任务,显著提升了区域气象预警和气候研究能力,是GOES系列发展中承前启后的重要观测节点。
美国
(US)
| 数据来源 | 国际轨道数据 |
| 星历时间: | 2026-09-11T13:09:28+0800 9小时前 查看轨道信息 |
| 半长轴: | 42552.011km |
| 偏心率: | 0.0003794 |
| 轨道倾角: | 14.502° |
| 近地点辐角 | 71.284° |
| 升交点赤经 | 13.003° |
| 平近点角 | 292.184° |
| 近地点: | 36157.729km |
| 远地点: | 36190.019km |
| 周期: | 1455.928分钟 |
| 每日圈数: | 0.98906 |